Temp_Advection
nan nan nan nan nan nan nan nan nan nan nan nan nan nan nan nan nan nan nan nan nan nan nan nan nan nan nan nan nan nan nan nan nan nan nan nan nan nan nan nan nan nan nan nan nan nan nan nan nan nan nan nan nan nan nan nan nan nan nan nan nan nan nan nan nan nan nan nan nan
nan -0 0 0 0 0 0 0 0 0 0 0 0 0 0 -0 0 0 -0 -0 -0 -0 -0 -0 -0 -0 -0 -0 -0 -0 -0 -0 -0 -0 -0 -0 -0 -0 -0 0 0 0 0 0 0 0 0 0 0 0 0 0 0 0 0 0 0 0 0 0 0 0 0 0 0 0 0 0 nan
nan 0 0 -0 -0 -0 0 0 0 0 0 0 0 0 0 -0 -0 -0 -0 -0 -0 -0 -0 -0 -0 -0 -0 -0 -0 -0 -0 -0 -0 -0 -0 -0 -0 -0 0 0 0 0 0 0 0 0 0 0 0 0 0 0 0 0 0 0 0 0 0 0 0 0 0 0 0 0 1 0 nan
nan 0 -0 -0 -0 0 0 0 0 0 0 0 0 0 -0 -0 -0 -0 -0 -0 -0 -0 -0 -0 -0 -0 -0 -0 -0 -0 -0 -0 -0 -0 -0 -0 -0 0 0 0 0 0 0 0 0 0 0 0 0 0 0 0 0 0 0 0 0 0 0 0 0 0 0 0 0 0 0 0 nan
nan 0 -0 -0 0 0 0 0 0 0 0 0 0 -0 -0 -0 -0 -0 -0 -1 -1 -0 -0 -0 -0 -0 -0 -0 -0 -0 -0 -0 -0 -0 -0 -0 0 0 0 0 0 0 0 0 0 0 0 0 0 0 0 0 0 0 0 0 0 0 0 0 0 0 0 0 0 0 0 0 nan
nan 0 0 0 0 0 0 0 0 0 0 0 -0 -0 -0 -0 -0 -0 -0 -0 -0 -0 -0 -0 -0 -0 -0 -0 -0 -0 -0 -0 -0 -0 0 0 0 0 0 0 0 0 0 0 0 0 0 0 0 0 0 0 0 0 0 0 0 0 0 0 0 0 0 0 0 0 0 0 nan
nan 0 0 0 0 0 0 0 0 0 0 -0 -0 -0 -0 -0 -0 -0 -0 -0 -0 -0 -0 -0 -0 -0 -0 -0 -0 -0 -0 -0 0 0 0 0 0 0 0 0 0 0 0 0 0 0 0 0 0 0 0 0 0 0 0 0 0 0 0 0 0 0 0 0 0 0 0 -0 nan
nan 0 -0 0 0 0 0 0 0 0 -0 -0 -0 -0 -0 -0 -0 -0 -0 -0 -0 -0 -0 -0 -0 -0 -0 -0 -0 -0 0 0 0 0 0 0 0 0 0 0 0 0 0 0 0 0 0 0 0 0 0 0 0 0 0 0 0 0 0 0 0 0 0 0 0 0 -0 0 nan
nan -0 -0 -0 -0 -0 0 0 0 0 -0 -0 -0 -0 -0 -0 -0 -0 -0 -0 -0 -0 -0 -0 -0 -0 -0 -0 -0 0 0 0 0 0 0 0 0 0 0 0 0 0 0 0 0 0 0 0 0 0 0 0 -0 0 0 0 1 1 0 0 0 0 0 0 0 0 -0 0 nan
nan -0 -0 -0 -0 0 0 0 0 0 -0 -0 -0 -0 -0 -0 -0 -0 -0 -0 -0 -0 -0 -0 0 0 0 0 0 0 0 0 0 0 0 0 0 0 0 0 0 0 0 0 0 0 0 0 0 0 0 0 0 0 0 0 1 1 0 0 0 0 0 0 0 0 0 -0 nan
nan -0 -0 -0 -0 0 0 0 0 0 -0 -0 -0 -0 -0 -0 -0 -0 -0 -0 -0 -0 -0 0 0 0 0 0 0 0 0 0 0 0 0 0 0 0 0 0 0 0 0 0 0 0 0 0 0 0 0 0 0 0 0 0 1 1 1 1 0 0 0 0 0 0 -0 -0 nan
nan 0 -0 -0 0 0 0 0 0 0 -0 -0 -0 -0 -0 -0 -0 -0 -0 -0 -0 -0 -0 0 0 0 0 0 0 0 0 0 0 0 0 0 0 0 0 0 0 0 0 0 0 0 0 0 0 0 0 0 0 0 0 0 0 1 1 1 1 0 0 0 0 0 0 -0 nan
nan 0 -0 -0 0 0 0 0 0 0 -0 -0 -0 -0 -0 -0 -0 -0 -0 -0 -0 -0 0 0 0 0 0 0 0 0 0 0 0 0 0 0 0 0 0 0 0 0 0 0 0 0 -0 0 0 0 0 0 0 0 0 0 0 0 1 1 1 0 0 0 0 0 0 -0 nan
nan -0 -0 0 0 0 -0 -0 0 -0 -0 -0 -0 -0 -0 -0 -0 -0 -0 -0 -0 -0 0 0 -0 -0 0 0 0 0 0 0 0 -0 -0 -0 0 -0 0 0 0 0 0 0 0 0 0 0 0 0 0 0 0 0 0 0 0 0 0 0 0 0 0 0 0 0 0 0 nan
nan -0 0 0 0 -0 -0 -0 -0 -0 -0 -0 -0 -0 -0 -0 -0 -0 -0 -0 -0 -0 -0 -0 -0 -0 0 0 0 0 0 0 -0 -0 -0 -0 -0 -0 0 0 0 0 0 0 0 0 0 0 0 0 0 0 0 1 0 0 0 0 0 0 0 0 0 0 0 -0 0 0 nan
nan -0 -0 0 0 -0 -0 -0 -0 -0 -0 -0 -0 -0 -0 -0 -0 -0 -0 -0 -0 -0 -0 -0 -0 -0 -0 0 0 0 0 -0 -0 -0 -0 -0 -0 -0 0 0 0 0 0 0 0 0 0 0 0 0 0 0 0 0 1 1 0 0 0 0 0 0 0 0 -0 -0 0 0 nan
nan -0 0 0 0 -0 -0 -0 -0 -0 -0 -0 -0 -0 -0 -0 -0 -0 -0 -0 -0 -0 -0 -0 0 0 -0 -0 -0 0 -0 -0 -0 -0 -0 -0 -0 0 0 0 0 0 0 0 0 0 0 0 0 0 0 0 0 0 0 0 0 0 0 0 0 0 0 -0 -0 -0 -0 0 nan
nan 0 0 0 -0 -0 -0 -0 -0 -0 -0 -0 -0 -0 -0 -0 -0 -0 -0 -0 -0 -0 -0 -0 0 0 -0 -0 -0 -0 -0 -0 -0 -0 -0 -0 0 0 0 0 0 0 0 0 0 0 0 0 0 0 0 0 0 0 0 0 0 0 0 0 0 0 0 0 -0 -0 -0 0 nan
nan -0 -0 -0 -0 -0 -0 -0 -0 -0 -0 -0 -0 -0 -0 -0 -0 -0 -1 -1 -0 -0 0 0 0 0 0 -0 -0 -0 -0 -0 -0 -0 0 0 0 0 0 0 0 0 0 0 0 0 1 0 0 0 0 0 0 0 0 0 0 0 0 0 0 0 0 0 0 0 -0 0 nan
nan -0 -0 -0 -0 -0 -0 -0 -0 -0 -0 -0 -0 -0 -1 -0 -0 -1 -1 -0 -0 0 0 0 0 0 0 0 0 -0 -0 -0 -0 0 0 0 0 0 0 0 0 0 0 0 0 0 0 1 0 0 0 0 0 0 0 0 0 0 0 0 0 0 0 0 0 0 0 0 nan
nan -0 -1 -1 -1 -1 -0 -0 -0 -0 -0 -0 -0 -0 -0 -0 -0 -0 -0 -0 0 0 0 -0 -0 0 0 0 0 0 0 0 0 0 0 0 0 0 0 0 0 0 0 0 0 0 0 1 0 0 0 0 0 0 0 0 0 0 0 0 0 0 0 0 0 0 0 0 nan
nan -0 -0 -0 -0 -0 -0 -0 -0 -0 -0 -0 -0 -0 -0 -0 -0 -0 0 0 0 0 -0 -0 -0 0 0 0 0 0 0 0 -0 -0 0 0 0 0 0 1 0 0 0 0 0 0 0 1 0 0 0 0 0 0 0 0 0 0 0 0 0 0 0 0 0 0 0 0 nan
nan -0 -0 -0 -0 -0 -0 -0 -0 -0 -0 -0 -0 -0 -0 -0 -0 0 0 0 -0 -0 -0 0 0 0 0 0 0 0 0 -0 -0 -0 -0 0 0 0 0 0 0 0 0 0 0 0 0 0 0 0 0 0 0 0 0 0 0 0 0 0 0 0 0 0 0 0 -0 0 nan
nan 0 0 -0 -0 -0 -0 -0 -0 -0 -0 -0 -0 -0 -0 -0 -0 0 0 -0 -0 -0 0 0 0 0 0 0 0 0 0 -0 -0 -0 -0 0 0 0 0 1 0 -0 -0 0 0 0 1 1 0 0 0 0 0 0 0 0 0 0 0 0 0 0 0 0 0 0 0 0 nan
nan -0 -0 -0 -0 -0 -0 -0 -0 -0 -0 -0 -0 -0 -0 0 0 0 0 -0 -0 0 0 0 0 0 0 0 0 0 0 -0 -0 -0 -0 0 0 0 1 0 0 -0 -0 0 0 1 1 1 1 1 1 0 1 0 0 0 0 0 0 0 0 0 -0 -0 -0 0 0 0 nan
nan -0 -0 -0 -0 -0 -0 -0 -0 -0 -0 -0 -0 -0 0 0 0 0 0 0 0 0 0 0 0 0 0 0 -0 -0 -0 -0 -0 -0 -0 0 0 1 1 0 0 -0 -0 0 0 1 1 1 1 1 1 1 0 0 0 0 0 0 0 0 0 -0 -0 -0 -0 0 0 0 nan
nan -0 -0 -0 -0 -0 -0 -0 -0 -0 -0 -0 -0 0 0 0 0 0 0 0 0 0 0 0 -0 -0 0 -0 -0 -0 -0 -0 -0 0 0 0 0 0 0 0 0 -0 -0 0 1 1 1 1 1 1 1 1 0 0 0 0 0 0 0 -0 -0 -0 0 0 -0 -0 0 0 nan
nan 0 0 0 0 0 -0 -0 -0 -0 -0 -0 -0 0 0 0 0 0 0 0 0 0 0 0 0 0 -0 -0 -0 -0 -0 -0 -0 -0 0 0 0 0 0 0 0 -0 -0 0 0 1 1 1 1 1 1 1 0 0 0 0 -0 -0 -0 -0 -0 -0 -0 -0 -0 0 0 1 nan
nan 0 0 0 0 0 0 0 -0 -0 -0 -0 0 0 0 0 0 0 0 0 0 0 0 0 0 0 0 0 -0 -0 -0 -0 -0 -0 -0 -0 0 0 0 0 0 0 0 0 0 0 0 0 0 0 0 0 0 0 -0 -0 -0 -0 -0 -0 -0 -0 -0 0 0 0 0 0 nan
nan -0 -0 -0 0 0 0 0 0 0 0 0 0 0 0 0 0 0 0 0 0 0 0 0 0 0 0 0 -0 -0 -0 -0 0 0 0 0 0 0 0 0 0 0 0 0 0 0 0 0 0 0 0 0 0 0 -0 -0 -0 -0 -0 -0 -0 0 0 0 0 0 0 0 nan
nan -0 -0 -0 -0 -0 -0 -0 0 0 0 0 0 0 0 0 0 0 0 0 0 0 0 0 0 0 0 -0 -0 -0 -0 0 0 0 0 0 0 0 0 0 0 0 0 0 0 0 0 0 0 0 0 0 -0 -0 -0 -0 -0 -0 -0 -0 0 0 0 1 0 0 0 -0 nan
nan -0 -0 -0 -0 -0 -0 -0 -0 -0 -0 -0 -0 0 0 0 0 0 0 0 0 0 0 0 0 0 -0 -0 -0 -0 0 0 0 0 0 0 0 0 0 0 0 0 0 0 0 0 0 0 0 0 0 0 0 0 0 0 0 -0 -0 -0 0 0 -0 -0 -0 -0 -0 -0 nan
nan -0 -0 -0 -0 -0 -0 -0 -0 -0 -0 -0 -0 -0 -0 0 0 0 0 0 0 0 0 -0 -0 -0 -0 -0 -0 0 0 0 0 0 0 0 0 0 0 0 0 0 0 0 0 0 0 0 0 0 0 0 0 0 0 0 0 -0 -0 -0 -0 -0 -0 -0 -0 -0 -0 -0 nan
nan -0 -0 -0 -0 -0 -0 -0 -0 -0 -0 -0 -0 -0 -0 0 0 -0 0 -0 -0 0 -0 -0 -0 -0 -0 -0 0 0 0 0 0 0 0 0 0 0 0 0 0 0 0 0 0 0 0 0 0 0 0 0 0 0 0 0 -0 -0 -0 -0 -0 -0 -0 -0 -0 -0 0 0 nan
nan -0 -0 -0 -0 -0 -0 -0 -0 -0 -0 -0 -0 -0 -0 -0 -0 -0 -0 -0 -0 -0 -0 -0 -0 -0 0 0 0 0 0 0 0 0 0 0 0 0 0 0 0 0 -0 0 0 0 0 0 0 0 0 0 0 0 0 0 0 -0 -0 0 0 0 0 -0 -0 0 0 0 nan
nan -0 -0 -0 -0 -0 -0 -0 -0 -0 -0 -0 -0 -0 -0 -0 -0 -0 -0 -0 -0 -0 -0 -0 -0 -0 0 0 0 0 0 0 0 0 0 0 0 0 0 0 0 -0 -0 -0 -0 0 0 0 0 0 0 0 0 0 0 0 0 0 0 0 0 0 0 0 0 0 0 0 nan
nan -0 -0 -0 -0 -0 -0 -0 -0 -0 -0 -0 -0 -0 -0 -0 -0 -0 -0 -0 -0 -0 -0 -0 -0 0 -0 0 -0 0 0 0 0 0 0 0 0 0 0 -0 -0 -0 -0 -0 -0 -0 -0 0 0 0 0 0 0 0 0 0 0 0 0 0 1 1 1 0 0 0 0 1 nan
nan -0 -0 -0 -0 -0 -0 -0 -0 -0 -0 -0 -0 -0 -0 -0 -0 -0 -0 -0 -0 -0 -0 -0 0 0 -0 -0 0 0 0 0 0 0 0 0 0 0 -0 -0 -0 -0 -0 -0 -0 -0 0 0 0 0 0 0 0 0 -0 -0 -0 -0 -0 0 0 1 1 1 0 0 0 1 nan
nan -0 -0 -0 -0 -0 -0 -0 -0 -0 -0 -0 -0 -0 -0 -0 -0 -0 -0 -0 -0 -0 -0 -0 -0 0 0 0 0 0 0 0 0 0 0 0 0 0 -0 -0 -0 0 0 0 -0 0 0 0 0 0 0 0 0 0 0 -0 -0 -0 -0 -0 0 0 1 1 0 0 0 1 nan
nan -0 -0 -0 -0 -0 -0 -0 -0 -0 -0 -0 -0 -0 -0 -0 -0 -0 -0 -0 -0 -0 -0 -0 -0 -0 0 0 0 0 0 0 0 -0 -0 -0 -0 0 0 -0 -0 0 0 0 0 0 0 0 0 0 0 0 0 0 0 0 0 -0 -0 -0 -0 0 0 1 1 1 1 1 nan
nan nan nan nan nan nan nan nan nan nan nan nan nan nan nan nan nan nan nan nan nan nan nan nan nan nan nan nan nan nan nan nan nan nan nan nan nan nan nan nan nan nan nan nan nan nan nan nan nan nan nan nan nan nan nan nan nan nan nan nan nan nan nan nan nan nan nan nan nan
Wind_Speed
20 19 18 17 15 14 14 15 16 16 15 14 13 12 10 9 9 9 8 7 6 6 7 8 9 10 11 11 12 12 11 11 11 11 11 11 11 11 12 12 13 14 14 15 15 16 17 17 18 19 20 21 22 22 22 23 23 24 24 25 26 26 26 27 27 27 26 26 26
19 18 17 16 15 14 13 15 15 15 14 13 13 12 11 10 10 9 9 8 7 6 7 8 9 10 10 11 11 12 12 12 12 12 12 12 12 12 12 13 14 14 15 15 16 16 17 18 18 19 20 21 22 22 23 23 24 24 25 26 27 27 27 28 28 28 27 27 27
18 17 16 16 15 14 13 13 13 13 13 13 12 12 11 11 10 10 10 9 8 7 8 8 9 9 10 11 11 12 12 12 12 12 12 12 12 13 13 14 14 15 15 16 16 17 17 18 19 20 20 21 21 22 22 23 23 24 25 26 27 28 28 29 29 29 28 28 28
16 16 16 15 14 13 12 12 11 11 11 12 12 12 12 11 11 11 10 9 8 8 8 8 9 9 10 11 11 12 12 12 12 12 12 12 13 13 13 14 14 15 15 16 16 17 17 18 19 20 21 21 21 22 22 22 23 24 25 26 27 28 29 30 30 29 29 30 29
15 15 14 13 12 12 11 11 11 10 11 11 12 12 12 11 11 11 10 9 8 8 8 9 9 10 11 11 11 12 12 12 13 13 13 13 13 13 14 14 15 15 15 16 16 17 17 18 20 21 21 22 22 22 22 22 22 23 24 26 27 28 29 29 30 30 30 30 30
15 14 13 12 11 11 11 11 11 11 11 11 11 11 11 11 10 10 9 9 8 8 9 9 10 11 11 12 12 12 12 13 13 13 13 13 14 14 14 15 15 15 15 16 16 17 17 18 20 21 22 22 23 23 22 22 22 23 24 25 26 27 28 28 29 30 30 30 31
14 14 13 12 11 10 10 10 11 11 11 11 11 11 10 10 9 9 8 8 8 8 9 10 11 11 11 12 12 12 13 13 13 14 14 14 14 14 15 15 15 15 16 16 16 17 17 19 20 21 22 22 23 23 23 22 22 23 24 25 25 26 27 27 28 29 29 30 30
14 13 13 12 11 10 10 10 10 11 11 11 11 10 9 9 8 8 8 8 8 9 9 10 11 12 12 12 13 13 13 13 14 14 14 14 15 15 15 15 15 16 16 16 16 17 18 19 20 21 22 22 23 23 22 22 22 23 24 24 25 26 26 27 27 28 29 30 30
13 13 12 11 11 10 10 10 10 11 11 11 10 9 9 8 8 8 8 8 9 9 10 11 11 12 12 13 13 13 14 14 14 14 15 15 15 15 15 15 16 16 16 16 17 17 18 19 21 22 22 22 22 22 22 22 22 23 24 25 25 26 26 26 27 28 28 29 30
13 13 12 12 11 10 10 11 11 11 11 11 10 9 9 8 8 8 8 9 9 10 10 11 11 12 12 13 13 14 14 14 14 15 15 15 15 15 15 15 16 16 16 16 17 18 19 20 21 22 22 22 22 22 22 22 22 23 24 25 25 26 26 26 26 27 28 28 29
12 12 12 12 11 11 11 11 12 12 12 11 11 10 9 9 8 8 8 9 9 10 10 11 11 12 12 13 13 13 14 14 14 15 15 15 15 15 15 16 16 16 16 17 17 18 20 21 22 23 23 22 22 22 22 22 23 23 24 25 25 25 26 26 26 26 27 28 28
12 12 13 12 12 12 12 12 12 12 12 12 11 11 10 10 9 9 8 9 10 10 11 11 11 12 13 13 13 13 13 13 14 14 14 15 15 15 16 16 16 17 17 17 18 19 20 22 23 23 22 22 22 22 22 23 23 23 24 24 25 25 26 26 26 26 27 27 27
12 12 13 13 13 12 13 13 13 13 13 12 12 11 11 11 10 10 10 10 11 11 11 11 12 12 13 13 13 13 13 13 13 14 14 15 15 16 16 16 17 17 17 18 19 20 21 22 22 22 22 22 22 22 22 23 23 23 23 24 25 25 25 25 25 26 26 26 27
12 12 13 13 13 13 13 13 13 13 13 13 12 12 12 12 11 11 11 11 12 12 12 12 13 13 14 14 13 13 13 13 14 14 15 16 16 16 17 17 17 17 18 18 19 20 21 21 22 22 21 21 22 22 22 22 23 23 23 23 24 24 25 25 25 25 26 26 26
12 12 12 12 13 13 13 13 13 13 13 13 13 13 13 13 13 13 13 13 13 13 13 13 14 14 14 14 14 14 14 14 15 16 16 17 17 18 18 18 18 18 18 18 19 19 20 21 21 21 21 21 21 21 22 22 23 23 23 23 23 23 24 24 24 25 26 26 26
13 13 13 13 13 13 13 14 14 14 14 14 14 14 14 14 14 14 14 14 14 14 14 15 15 15 15 15 15 15 15 16 16 17 18 18 18 19 19 19 19 18 18 18 19 19 20 20 20 20 20 20 21 21 21 22 22 23 23 23 23 23 23 23 23 24 25 25 26
14 14 13 14 14 14 14 14 14 14 14 14 14 14 14 14 14 15 15 15 15 15 15 16 16 16 16 16 16 16 16 17 17 18 18 19 19 19 19 19 19 19 19 19 19 20 20 20 19 19 20 20 21 21 21 22 22 23 23 22 22 22 22 22 22 23 24 24 25
14 14 14 14 14 14 14 15 15 15 15 15 15 15 15 15 15 16 16 16 16 16 17 17 16 17 17 17 17 17 17 18 18 18 19 19 19 19 19 20 20 20 20 20 20 20 20 19 19 19 19 20 20 21 21 22 22 22 22 22 22 22 22 22 22 23 23 23 23
15 15 15 15 15 15 15 15 15 15 15 15 15 15 16 16 16 16 17 17 17 17 17 17 17 17 17 17 17 18 18 18 18 19 19 19 19 19 19 20 20 20 20 20 21 20 20 20 19 19 20 20 20 21 21 22 22 22 22 22 22 21 21 22 22 23 23 24 23
15 15 16 16 16 16 16 15 15 15 15 15 16 16 16 16 16 17 17 17 17 17 17 18 18 18 18 18 18 18 18 18 18 18 18 18 19 19 19 20 20 20 21 21 21 21 20 20 20 20 20 20 20 21 21 21 22 22 22 22 22 21 21 21 22 22 23 24 25
14 15 15 15 15 15 15 15 15 15 15 15 15 16 16 16 16 16 16 16 17 17 17 18 18 19 19 19 19 19 19 19 19 19 18 19 19 19 20 20 20 21 21 22 22 21 21 20 20 20 20 20 20 20 21 21 22 22 22 22 22 22 21 21 22 22 23 24 24
12 12 13 13 13 13 13 13 13 14 14 14 14 14 15 15 15 15 15 15 16 16 17 18 18 18 19 19 19 19 19 19 19 19 19 19 19 19 20 20 21 22 22 23 23 22 21 21 20 20 20 20 20 20 20 21 21 22 22 22 22 22 22 22 22 23 23 23 23
9 10 10 10 11 11 11 11 12 12 13 13 13 13 14 14 14 14 15 15 16 16 17 17 18 18 18 18 18 18 18 19 19 18 18 18 19 19 20 20 21 23 23 23 23 22 22 21 20 20 19 19 19 19 20 20 21 21 21 21 21 21 22 23 23 24 23 23 23
8 8 8 9 9 10 10 11 11 12 12 13 13 13 14 14 14 14 15 15 16 16 16 17 17 17 17 17 17 17 18 18 19 19 18 18 18 19 20 21 22 23 24 24 24 23 22 21 20 19 19 19 19 19 20 20 20 21 21 21 21 21 22 23 23 23 23 22 23
6 6 7 7 8 9 9 10 10 11 12 12 13 13 14 14 15 15 15 15 16 16 16 16 16 16 16 16 17 17 18 18 18 18 18 18 18 19 20 21 23 24 24 24 24 23 21 20 19 19 18 18 19 19 19 20 20 20 20 20 21 21 22 22 22 21 21 22 23
4 4 5 6 6 7 8 8 9 10 10 11 11 12 13 13 14 15 15 15 15 15 15 15 16 16 16 16 17 17 17 18 18 18 18 18 18 19 20 21 23 23 24 24 23 22 20 19 18 18 18 18 18 19 19 19 19 19 20 20 20 21 21 21 21 21 21 22 24
2 3 3 3 4 5 5 6 6 7 8 8 9 10 11 12 12 13 14 14 15 15 15 15 15 15 16 16 16 17 17 17 17 17 17 18 18 19 20 21 22 23 23 22 21 20 19 18 18 17 17 17 18 18 19 19 19 19 19 20 20 20 21 21 21 21 22 23 24
2 1 1 2 2 3 3 3 4 5 5 6 7 8 8 9 10 11 12 13 14 14 14 15 15 15 15 15 16 16 16 16 16 17 17 17 18 18 19 20 21 21 21 20 19 18 18 17 17 16 16 16 17 18 18 18 18 18 19 19 19 19 20 20 21 22 23 23 23
2 2 1 1 1 1 2 2 2 3 3 4 4 5 6 7 8 9 10 11 12 13 13 14 14 14 14 15 15 15 15 15 16 16 16 17 17 17 18 18 18 19 18 18 17 16 15 15 15 15 15 15 16 16 17 17 18 18 18 18 18 18 18 19 20 21 22 22 21
4 3 3 2 2 1 1 1 1 1 2 2 3 4 4 5 6 8 9 9 10 11 12 12 13 13 13 13 14 14 14 15 15 15 15 15 15 15 16 16 16 16 15 15 14 14 13 13 13 14 14 14 14 15 16 17 17 18 18 18 18 18 19 20 21 21 22 21 21
5 5 5 4 4 3 2 1 1 0 0 1 1 2 3 4 5 6 7 8 8 9 10 11 11 12 12 13 13 13 14 14 14 13 13 13 13 13 13 13 13 13 13 12 12 12 12 12 12 12 12 12 13 14 15 16 17 17 17 17 18 19 20 21 21 21 21 21 21
6 6 6 5 5 5 4 3 2 2 1 1 1 1 2 3 4 4 5 6 7 8 9 9 10 11 11 12 12 13 13 13 12 12 11 11 11 11 11 11 11 11 11 11 10 10 10 10 10 10 11 11 12 13 14 14 15 15 15 16 17 17 18 18 19 20 20 20 21
7 6 6 6 6 5 4 4 3 3 2 2 1 1 2 3 3 4 5 6 6 7 8 9 9 10 11 11 12 12 12 12 11 11 10 10 10 10 10 9 9 9 9 9 9 9 9 9 9 9 10 10 11 12 12 12 12 12 13 13 14 14 15 15 16 17 17 18 18
8 7 6 6 6 5 5 4 4 3 2 2 1 1 2 3 4 4 5 6 6 7 8 8 9 10 10 11 11 11 11 10 10 10 10 10 10 9 9 8 8 9 9 9 9 8 8 8 8 9 9 10 10 9 9 10 10 10 11 11 11 11 12 12 13 13 14 15 16
9 8 8 7 7 6 5 4 4 3 2 2 1 2 2 3 4 5 5 5 6 7 8 8 9 10 10 11 11 10 10 10 10 10 10 10 9 9 9 9 9 9 9 9 9 8 8 8 9 9 9 9 8 8 8 8 9 9 10 10 11 11 10 11 11 11 12 13 15
10 10 9 8 7 6 6 5 4 3 3 2 2 2 3 4 4 5 5 5 6 7 8 8 9 10 10 10 11 11 10 10 10 10 10 11 11 10 10 11 11 10 10 10 10 10 10 10 10 10 10 9 8 8 8 8 9 10 10 11 12 12 12 12 12 12 12 13 13
10 10 10 9 8 7 6 5 4 4 3 3 3 3 4 4 5 5 5 5 6 7 8 9 9 10 10 11 11 11 11 11 11 11 11 12 12 12 12 13 12 12 12 12 12 12 12 13 13 12 12 11 10 10 9 9 10 11 12 13 14 14 14 14 14 13 12 12 12
10 10 9 9 8 7 6 5 4 4 3 3 3 3 4 4 5 5 5 6 7 8 9 9 10 10 11 11 11 11 12 12 12 12 12 13 13 13 13 14 14 14 14 14 14 14 14 14 14 14 13 13 12 11 11 11 12 13 14 15 16 17 17 17 16 15 14 13 12
9 9 9 8 8 7 6 5 4 4 4 4 3 3 3 4 4 5 6 7 7 8 9 9 9 10 10 11 11 11 12 12 13 13 13 13 13 13 13 14 15 15 15 15 14 14 14 14 14 14 14 13 13 13 13 13 14 15 15 16 16 17 17 17 17 16 16 15 13
9 8 8 8 8 7 6 5 5 5 5 4 4 3 3 4 4 5 6 7 7 8 9 9 9 10 10 11 11 11 12 12 13 12 12 11 11 12 12 13 14 15 15 15 15 15 15 15 15 15 15 15 15 16 16 17 17 17 17 16 16 15 15 15 15 14 13 12 12
8 8 8 8 8 7 7 7 7 6 6 6 6 5 4 4 4 4 5 5 6 7 8 9 9 10 11 12 12 12 12 12 12 11 11 11 11 12 13 14 14 15 15 15 15 16 16 17 17 18 18 18 18 18 19 19 19 19 18 17 16 14 13 12 11 11 10 9 9
Wind_Direction
224 226 226 224 221 219 222 227 228 229 230 232 234 236 237 239 243 249 255 255 242 225 210 202 199 197 197 199 202 204 206 209 212 216 220 223 226 228 230 232 235 237 238 239 240 241 242 243 244 245 246 247 247 247 247 247 247 246 246 246 247 247 247 248 248 249 249 250 251
223 225 226 225 222 221 223 226 228 228 230 232 236 238 240 242 245 251 256 257 249 234 218 208 202 199 198 200 202 204 206 209 213 216 220 223 225 228 230 231 234 236 237 238 239 241 242 243 244 245 246 247 247 247 247 247 247 246 246 246 246 246 246 247 247 248 249 250 251
222 224 226 226 225 225 225 227 227 229 230 234 238 241 244 245 248 254 258 259 249 234 220 209 203 201 201 203 205 207 208 210 213 217 220 223 225 227 229 230 232 234 235 237 238 240 241 243 244 245 246 247 247 247 247 247 247 247 246 246 246 246 246 246 246 247 247 249 250
221 223 225 226 226 226 227 228 229 231 234 237 241 244 246 248 251 255 258 255 243 228 216 210 208 208 208 209 210 211 212 214 216 218 221 223 224 226 227 229 230 232 233 235 237 239 240 242 243 244 245 246 247 247 247 247 248 247 247 247 247 247 246 246 246 246 246 247 248
220 222 224 224 225 227 228 231 234 237 240 242 244 245 246 248 250 252 251 246 236 225 217 215 215 215 214 214 214 214 216 218 220 221 223 223 224 225 226 228 229 230 232 233 235 237 239 241 243 244 245 245 246 246 247 247 248 248 248 248 248 248 247 247 247 247 247 247 247
220 221 222 222 224 226 229 232 236 239 242 244 245 245 245 246 247 247 244 240 233 226 222 219 217 216 216 216 216 217 218 220 222 223 224 223 224 224 225 226 227 229 230 232 233 235 238 240 242 243 244 245 245 246 247 247 247 248 249 249 249 249 249 249 249 248 248 247 248
224 224 224 224 224 227 229 232 236 240 243 245 245 245 244 245 244 242 239 236 231 226 221 217 214 213 214 215 216 217 219 221 223 224 224 224 224 224 225 226 227 228 230 231 233 235 237 240 243 244 245 245 245 246 246 247 247 248 250 251 252 252 252 252 251 250 250 249 249
229 229 228 228 228 229 231 233 235 238 241 243 244 245 246 245 244 240 236 230 226 222 218 215 212 211 212 213 214 216 218 220 221 223 223 223 224 224 226 227 228 229 231 233 234 236 238 241 243 245 245 246 246 246 246 247 247 249 251 253 254 255 254 254 253 253 252 251 251
230 230 230 230 230 231 233 236 237 238 239 242 245 248 248 246 243 238 233 228 223 219 216 214 211 211 211 212 214 215 217 219 219 221 223 224 224 225 226 229 230 231 233 235 236 238 240 242 244 245 246 247 248 248 247 247 247 249 251 253 254 255 256 255 255 254 253 253 252
231 231 231 231 231 232 236 240 242 242 242 244 247 249 249 248 241 236 232 228 222 218 215 213 212 212 212 213 214 215 217 218 220 221 223 224 225 226 228 230 232 234 235 238 239 240 242 244 245 246 247 248 249 250 249 248 248 249 250 252 253 255 256 256 255 255 254 254 253
233 234 234 234 235 236 239 242 244 245 246 246 247 248 248 247 243 237 232 227 222 218 215 214 214 213 213 214 215 217 218 220 222 223 224 226 227 229 231 233 235 236 238 240 242 243 244 245 247 248 249 250 251 251 251 250 249 249 250 251 253 254 255 256 256 256 255 255 254
235 236 238 240 241 243 244 244 246 247 248 249 247 246 245 245 244 241 235 230 225 221 219 219 218 217 217 217 218 219 221 223 225 227 228 229 231 233 234 236 237 238 239 242 244 245 246 246 248 250 251 252 253 253 253 253 252 251 251 252 253 254 255 256 257 257 256 256 255
236 237 240 244 246 247 247 247 248 249 249 249 247 245 244 244 244 242 239 234 230 227 226 225 224 223 222 222 222 223 225 227 229 232 233 234 235 236 237 238 239 240 241 243 245 246 247 249 250 252 253 254 255 255 256 256 255 254 252 252 252 253 254 255 257 257 257 256 256
236 238 240 244 247 248 249 249 249 249 249 247 245 244 244 244 243 242 240 238 236 234 234 232 231 230 229 228 228 229 231 233 235 237 238 238 238 239 240 240 241 242 242 244 246 248 249 251 252 253 254 255 256 256 257 258 258 257 255 254 253 253 254 255 256 257 257 257 256
233 235 237 241 244 246 246 247 246 246 245 244 243 242 243 244 244 243 241 241 240 240 240 239 238 237 235 234 234 235 237 239 240 241 241 241 241 241 242 243 243 243 244 246 247 249 251 252 254 255 256 256 256 257 257 258 259 259 258 257 255 255 255 255 255 256 256 256 255
231 232 233 236 239 240 241 242 241 241 241 241 241 242 244 245 246 245 244 244 244 245 245 244 244 244 243 242 240 240 241 242 242 243 244 244 244 244 245 245 245 246 246 248 249 251 252 254 255 256 257 257 256 257 257 258 259 260 259 259 258 257 256 255 256 256 256 256 254
229 230 231 233 235 236 237 237 238 239 240 241 242 244 246 247 248 248 247 246 246 247 248 248 250 251 251 249 247 245 244 244 245 246 247 247 248 248 248 247 247 247 248 249 251 253 254 256 257 258 258 257 257 256 256 257 258 258 259 259 258 258 258 257 257 258 259 259 258
230 231 232 233 234 235 235 236 237 238 240 242 244 246 247 248 249 250 249 248 248 249 250 252 253 254 255 254 252 250 248 247 247 248 248 249 250 249 249 249 248 248 249 250 252 254 256 258 259 260 259 258 257 256 256 256 257 257 257 258 258 257 257 257 258 259 262 264 264
233 234 235 236 236 236 237 237 238 239 241 242 244 246 247 248 250 251 251 251 251 252 253 254 256 256 256 256 256 254 252 250 250 249 249 249 249 249 248 248 248 249 250 251 252 254 256 258 260 261 261 260 258 257 256 256 256 256 256 256 256 256 256 256 257 258 260 263 266
235 236 237 238 238 239 240 240 241 242 243 244 246 247 249 250 251 253 254 255 257 258 258 258 258 258 258 258 258 257 256 255 253 252 250 249 249 248 248 248 249 250 251 252 253 254 256 258 260 261 262 261 260 259 258 257 257 256 256 255 254 254 255 256 256 256 257 258 260
232 233 235 235 237 239 240 242 243 245 246 248 249 250 251 253 255 256 257 260 261 263 263 262 262 261 261 261 261 261 260 259 257 255 253 250 249 248 248 249 250 251 252 252 253 254 256 258 260 261 262 262 261 261 260 259 258 257 256 255 254 253 253 255 256 256 256 255 255
228 229 231 232 234 237 239 241 244 246 248 250 252 254 256 257 259 260 262 263 264 264 264 264 264 264 264 264 264 263 263 262 260 258 255 253 251 250 250 251 251 252 252 253 253 254 256 258 259 261 262 262 262 262 261 261 260 258 257 256 254 253 252 253 254 255 255 255 253
227 229 230 232 235 237 240 242 244 247 249 251 253 255 258 259 260 262 263 264 264 264 264 265 266 266 266 267 266 266 265 264 262 260 257 255 253 252 252 253 253 253 253 253 254 254 256 258 259 261 262 263 263 263 262 262 261 260 258 256 255 253 252 251 252 253 254 254 253
230 232 234 236 238 241 243 245 247 249 250 252 254 256 257 259 260 261 262 263 263 264 265 266 267 268 268 268 268 266 266 265 264 263 261 258 255 254 253 254 254 254 253 253 253 255 257 259 261 262 263 263 264 264 264 264 263 261 260 258 256 255 253 252 252 253 253 254 253
233 236 238 241 244 246 248 250 252 253 254 255 257 257 259 260 261 261 262 263 264 265 266 267 268 268 269 268 268 267 267 266 266 265 264 262 259 257 256 256 255 255 254 254 255 257 259 261 263 264 265 265 266 266 266 265 265 263 262 259 258 257 256 256 256 256 256 255 255
229 235 239 242 245 247 251 253 255 257 258 259 260 261 261 262 262 263 263 264 265 265 266 267 267 268 268 268 268 268 268 268 268 268 267 265 263 261 260 259 259 258 257 257 258 260 262 264 264 265 266 267 268 269 268 267 266 265 263 261 259 259 259 260 260 260 259 258 258
209 223 230 235 241 245 248 252 255 257 260 261 262 262 263 263 264 264 264 264 265 265 265 265 266 266 267 267 268 268 269 270 270 270 269 268 266 264 263 263 263 263 262 263 264 265 265 264 264 264 265 267 269 269 269 269 268 265 263 261 260 260 260 261 261 262 262 262 263
157 176 197 214 226 234 240 246 250 254 256 259 261 262 263 263 263 263 263 263 263 263 263 263 263 264 264 266 267 268 270 271 272 272 271 270 268 267 266 266 267 268 268 269 268 267 266 264 263 263 265 267 269 270 270 269 268 266 264 263 262 262 262 262 263 263 265 267 270
97 103 117 143 170 191 212 222 229 238 245 252 256 259 260 261 261 261 261 260 260 259 259 260 260 261 262 264 265 267 268 269 270 271 271 271 270 270 269 269 270 271 271 270 268 266 264 263 263 263 266 268 271 272 271 270 269 268 268 268 268 267 267 267 267 268 270 272 274
54 55 58 65 75 98 132 168 191 208 222 238 248 253 256 258 258 258 258 257 257 256 256 257 257 258 260 262 264 265 266 267 268 269 269 270 270 270 270 269 269 269 268 266 264 262 261 261 262 263 265 268 271 271 271 269 269 269 270 270 269 268 268 269 271 274 277 278 277
38 37 36 36 40 45 53 61 71 111 195 239 252 255 257 257 256 256 256 255 254 253 253 253 254 255 257 259 261 262 263 263 264 264 265 265 264 264 264 263 263 262 261 259 258 257 257 258 259 261 264 267 268 269 269 269 270 271 271 270 269 270 273 278 284 288 290 290 287
38 36 34 32 32 32 31 29 28 24 14 348 302 273 264 259 257 256 255 253 251 250 250 251 252 253 255 256 258 258 259 258 258 258 257 256 255 254 254 254 255 254 254 253 251 251 251 253 255 259 262 264 266 268 270 274 277 279 279 279 279 283 288 294 298 301 302 301 298
42 41 40 39 37 34 31 27 24 16 5 347 327 293 277 268 263 258 254 252 250 249 249 250 252 253 254 254 254 254 254 253 252 251 249 248 247 246 246 246 248 248 247 246 245 245 246 249 252 256 259 262 266 271 278 285 290 293 295 295 297 301 304 304 303 303 303 304 304
46 47 47 47 45 42 37 30 23 16 5 348 329 302 285 275 267 263 258 255 252 250 250 250 250 250 249 249 248 247 246 246 245 244 243 242 240 239 238 239 241 242 241 240 239 240 242 245 249 253 258 264 271 279 287 294 299 302 303 305 307 309 309 306 303 301 301 304 307
48 49 51 52 51 47 42 35 27 19 11 354 329 309 293 280 271 266 261 258 255 253 251 249 248 247 247 246 244 242 240 239 239 238 237 236 234 232 231 232 235 236 236 235 235 236 238 243 248 252 258 265 273 281 288 293 298 301 302 304 306 307 306 303 300 298 299 302 307
47 49 51 53 53 51 46 39 33 25 14 358 336 316 301 289 278 269 263 259 258 256 253 250 249 247 245 244 242 240 237 235 235 235 235 234 232 231 229 231 232 232 232 232 233 235 239 243 248 252 255 260 266 272 280 287 293 297 300 301 303 303 302 299 296 295 295 298 303
44 45 48 51 53 52 48 43 37 28 16 1 343 327 312 300 287 277 268 264 260 257 255 252 249 246 243 240 238 238 239 238 236 235 236 236 234 232 232 233 233 231 231 232 235 239 243 248 252 254 255 256 260 266 273 280 287 292 296 299 300 300 299 296 293 290 289 291 295
41 43 44 47 49 50 48 43 35 26 17 8 352 334 319 307 294 283 275 270 264 259 256 253 249 245 242 241 239 239 239 238 237 237 237 237 237 237 238 239 240 239 238 239 241 245 250 255 259 261 262 262 264 268 274 280 285 289 292 295 296 297 296 294 290 286 284 284 286
41 42 43 44 45 45 44 39 31 23 17 10 355 334 317 306 295 284 278 274 271 268 264 260 254 251 249 248 245 241 239 237 237 239 241 243 245 247 250 253 255 256 256 256 256 258 261 265 268 270 271 272 274 277 280 283 286 287 288 289 290 291 290 289 285 282 279 277 279
42 42 43 42 42 42 41 38 33 27 22 13 360 341 325 313 300 291 284 280 278 278 276 273 269 266 264 262 258 254 251 249 248 249 253 257 262 267 271 274 276 276 276 277 277 277 278 279 281 282 282 282 282 282 283 283 284 284 284 283 282 281 280 279 278 275 271 268 270
43 43 44 42 42 41 40 39 38 37 35 31 26 20 12 1 347 332 319 307 298 293 290 288 284 282 279 276 271 268 266 267 267 270 275 279 283 286 287 288 290 290 290 290 290 290 291 291 291 291 289 288 286 284 282 281 281 282 282 280 277 274 271 270 269 267 265 263 265
Height
1472 1472 1473 1474 1475 1475 1476 1476 1477 1477 1478 1479 1479 1480 1480 1481 1481 1482 1482 1482 1483 1484 1484 1485 1485 1486 1486 1487 1487 1487 1487 1488 1488 1488 1489 1489 1490 1490 1491 1491 1491 1491 1492 1492 1492 1492 1492 1492 1492 1492 1492 1492 1492 1492 1493 1493 1493 1493 1493 1493 1493 1493 1493 1493 1493 1493 1493 1493 1493
1471 1472 1472 1473 1473 1474 1474 1475 1475 1476 1477 1477 1478 1478 1479 1480 1480 1481 1481 1482 1482 1482 1483 1483 1484 1484 1485 1486 1486 1486 1487 1487 1487 1487 1488 1488 1489 1489 1489 1489 1490 1490 1490 1490 1491 1491 1491 1491 1491 1491 1490 1490 1490 1490 1491 1491 1491 1491 1491 1491 1491 1491 1491 1491 1491 1491 1491 1492 1492
1470 1471 1471 1472 1472 1472 1473 1473 1474 1475 1476 1476 1477 1477 1478 1478 1479 1479 1480 1480 1481 1481 1482 1482 1483 1483 1484 1484 1485 1485 1485 1486 1486 1487 1487 1487 1487 1488 1488 1488 1488 1488 1489 1489 1489 1489 1489 1489 1489 1489 1488 1488 1488 1488 1488 1489 1489 1489 1489 1488 1488 1488 1488 1488 1488 1489 1489 1489 1489
1469 1469 1470 1470 1471 1471 1472 1472 1473 1474 1474 1475 1475 1476 1477 1477 1477 1478 1478 1479 1480 1480 1481 1481 1482 1482 1482 1483 1483 1484 1484 1485 1485 1485 1486 1486 1486 1486 1487 1487 1487 1487 1487 1487 1487 1487 1487 1487 1487 1487 1487 1487 1487 1487 1487 1487 1487 1487 1487 1487 1486 1486 1486 1486 1486 1487 1487 1487 1487
1467 1468 1468 1469 1470 1470 1471 1471 1472 1472 1473 1474 1474 1475 1475 1476 1476 1477 1477 1478 1478 1479 1479 1480 1480 1481 1481 1482 1482 1482 1483 1483 1484 1484 1484 1484 1485 1485 1485 1485 1485 1486 1486 1486 1486 1486 1486 1486 1485 1485 1485 1485 1485 1485 1485 1485 1485 1485 1485 1484 1484 1484 1484 1484 1484 1485 1485 1485 1485
1466 1467 1467 1468 1468 1469 1470 1470 1471 1471 1472 1472 1473 1473 1474 1474 1475 1475 1476 1477 1477 1477 1478 1478 1479 1479 1480 1480 1481 1481 1482 1482 1482 1482 1483 1483 1483 1483 1484 1484 1484 1484 1484 1484 1484 1484 1484 1484 1483 1483 1483 1483 1483 1483 1483 1483 1483 1483 1483 1482 1482 1482 1482 1482 1482 1482 1483 1483 1483
1465 1466 1466 1467 1467 1468 1468 1469 1470 1470 1471 1471 1472 1472 1472 1473 1474 1474 1475 1475 1476 1476 1477 1477 1477 1478 1479 1479 1480 1480 1480 1481 1481 1481 1482 1482 1482 1482 1482 1482 1482 1482 1482 1483 1483 1483 1482 1482 1482 1481 1481 1481 1481 1481 1482 1482 1482 1481 1481 1481 1481 1481 1481 1481 1481 1481 1481 1481 1481
1464 1464 1465 1466 1466 1467 1467 1468 1468 1469 1470 1470 1470 1471 1472 1472 1472 1473 1473 1474 1474 1475 1475 1476 1476 1477 1477 1478 1478 1479 1479 1479 1480 1480 1480 1480 1480 1481 1481 1481 1481 1481 1481 1481 1481 1481 1481 1481 1480 1479 1479 1479 1479 1479 1480 1480 1480 1480 1479 1479 1479 1479 1479 1479 1479 1479 1479 1479 1479
1463 1463 1464 1464 1465 1466 1466 1467 1467 1468 1468 1469 1469 1470 1470 1471 1471 1472 1472 1473 1473 1474 1474 1475 1475 1476 1476 1477 1477 1477 1478 1478 1478 1478 1478 1479 1479 1479 1479 1479 1479 1479 1479 1479 1479 1479 1479 1479 1478 1477 1477 1477 1477 1478 1478 1478 1478 1478 1477 1477 1477 1477 1477 1477 1477 1477 1477 1477 1477
1462 1462 1463 1463 1464 1464 1465 1466 1466 1467 1467 1468 1468 1469 1469 1470 1470 1471 1471 1472 1472 1472 1473 1473 1474 1475 1475 1475 1476 1476 1476 1477 1477 1477 1477 1477 1477 1477 1477 1477 1478 1478 1478 1478 1478 1477 1477 1477 1476 1476 1476 1476 1476 1476 1476 1476 1476 1476 1476 1475 1475 1475 1475 1475 1475 1475 1475 1475 1475
1461 1461 1462 1462 1463 1463 1464 1464 1465 1466 1466 1467 1467 1468 1468 1469 1469 1470 1470 1471 1471 1472 1472 1472 1473 1473 1474 1474 1474 1475 1475 1475 1475 1475 1475 1476 1476 1476 1476 1476 1476 1476 1476 1476 1476 1476 1475 1475 1474 1474 1474 1474 1474 1474 1474 1474 1474 1474 1474 1473 1473 1473 1473 1473 1473 1473 1473 1473 1473
1460 1460 1461 1461 1462 1462 1463 1463 1464 1464 1465 1465 1466 1467 1467 1467 1468 1468 1469 1470 1470 1471 1471 1471 1472 1472 1472 1472 1473 1473 1473 1474 1474 1474 1474 1474 1474 1474 1474 1474 1474 1474 1474 1474 1474 1474 1473 1473 1472 1472 1473 1473 1473 1472 1472 1472 1472 1472 1472 1472 1472 1472 1472 1472 1472 1472 1471 1471 1471
1459 1459 1460 1460 1461 1461 1462 1462 1462 1463 1464 1464 1465 1465 1466 1467 1467 1467 1468 1468 1469 1469 1470 1470 1471 1471 1471 1471 1472 1472 1472 1472 1472 1472 1472 1472 1473 1473 1473 1473 1473 1473 1473 1473 1472 1472 1472 1471 1471 1471 1471 1471 1471 1471 1471 1471 1471 1470 1470 1470 1470 1470 1470 1470 1470 1470 1470 1469 1470
1457 1458 1458 1459 1459 1460 1460 1461 1461 1462 1462 1463 1464 1464 1465 1465 1466 1466 1467 1467 1467 1468 1469 1469 1469 1469 1470 1470 1470 1471 1471 1471 1471 1471 1471 1471 1471 1471 1471 1471 1471 1471 1471 1471 1471 1470 1470 1470 1470 1470 1470 1470 1469 1469 1469 1469 1469 1468 1468 1468 1468 1468 1468 1468 1468 1468 1468 1468 1468
1457 1457 1457 1458 1458 1459 1459 1460 1460 1461 1461 1462 1462 1463 1463 1464 1465 1465 1465 1466 1466 1467 1467 1467 1468 1468 1468 1469 1469 1469 1469 1469 1469 1469 1469 1469 1470 1470 1470 1470 1470 1470 1469 1469 1469 1469 1468 1468 1468 1468 1468 1468 1468 1467 1467 1467 1467 1467 1466 1466 1466 1466 1466 1467 1467 1466 1466 1466 1466
1456 1456 1457 1457 1457 1458 1458 1459 1459 1460 1460 1461 1461 1462 1462 1463 1463 1464 1464 1464 1465 1465 1466 1466 1466 1467 1467 1467 1467 1468 1468 1468 1468 1468 1468 1468 1468 1468 1468 1468 1468 1468 1468 1467 1467 1467 1467 1467 1467 1466 1466 1466 1466 1466 1466 1465 1465 1465 1464 1464 1464 1464 1464 1464 1464 1464 1464 1464 1464
1455 1455 1456 1456 1456 1457 1457 1457 1458 1459 1459 1459 1460 1461 1461 1462 1462 1462 1462 1463 1463 1464 1464 1464 1465 1465 1465 1465 1466 1466 1466 1466 1466 1466 1466 1466 1466 1466 1466 1466 1466 1466 1466 1466 1466 1465 1465 1465 1465 1465 1464 1464 1464 1464 1464 1463 1463 1463 1462 1462 1462 1462 1462 1462 1462 1462 1462 1462 1462
1453 1454 1454 1455 1455 1456 1456 1456 1457 1457 1458 1458 1459 1459 1460 1460 1460 1461 1461 1461 1462 1462 1462 1462 1463 1463 1463 1463 1464 1464 1464 1464 1464 1464 1464 1464 1464 1465 1465 1465 1465 1464 1464 1464 1464 1463 1463 1463 1463 1463 1463 1462 1462 1462 1462 1462 1461 1461 1461 1461 1461 1461 1461 1461 1461 1461 1461 1460 1460
1452 1453 1453 1453 1454 1454 1455 1455 1456 1456 1457 1457 1457 1458 1458 1458 1459 1459 1459 1459 1460 1460 1461 1461 1461 1461 1462 1462 1462 1462 1462 1462 1462 1462 1462 1462 1462 1462 1462 1462 1462 1462 1462 1462 1462 1462 1462 1462 1462 1461 1461 1461 1461 1460 1460 1460 1460 1459 1459 1459 1459 1459 1459 1459 1459 1459 1459 1459 1458
1451 1451 1452 1452 1453 1453 1453 1454 1454 1455 1455 1455 1456 1456 1457 1457 1457 1457 1458 1458 1458 1458 1459 1459 1459 1459 1460 1460 1460 1460 1460 1460 1460 1460 1460 1460 1460 1460 1460 1461 1461 1461 1460 1460 1460 1460 1460 1460 1460 1459 1459 1459 1459 1459 1458 1458 1458 1458 1457 1457 1457 1457 1457 1457 1457 1457 1457 1457 1457
1449 1450 1450 1451 1451 1452 1452 1452 1453 1453 1454 1454 1454 1455 1455 1455 1456 1456 1456 1457 1457 1457 1457 1457 1457 1457 1457 1458 1458 1458 1458 1458 1458 1458 1458 1458 1458 1458 1458 1458 1458 1458 1458 1458 1458 1458 1458 1458 1458 1458 1457 1457 1457 1457 1457 1457 1457 1456 1456 1456 1456 1456 1456 1456 1456 1455 1455 1455 1455
1448 1448 1449 1449 1450 1450 1451 1451 1452 1452 1452 1452 1453 1453 1453 1454 1454 1454 1454 1455 1455 1455 1455 1455 1455 1456 1456 1456 1456 1456 1456 1456 1456 1456 1456 1456 1457 1457 1457 1457 1457 1456 1456 1456 1456 1456 1456 1456 1456 1456 1456 1456 1456 1456 1455 1455 1455 1454 1454 1454 1454 1454 1454 1454 1454 1454 1453 1453 1453
1447 1447 1447 1448 1448 1449 1449 1449 1450 1450 1451 1451 1451 1452 1452 1452 1452 1453 1453 1453 1453 1453 1453 1453 1453 1454 1454 1454 1454 1454 1454 1454 1454 1454 1454 1455 1455 1455 1455 1455 1454 1454 1454 1454 1454 1454 1454 1454 1454 1454 1454 1454 1454 1454 1454 1453 1453 1453 1452 1452 1452 1452 1452 1452 1452 1452 1452 1452 1451
1446 1446 1447 1447 1447 1447 1448 1448 1448 1449 1449 1449 1450 1450 1450 1451 1451 1451 1451 1451 1452 1452 1452 1452 1452 1452 1452 1452 1452 1452 1452 1452 1452 1452 1453 1453 1453 1453 1453 1453 1452 1452 1452 1452 1452 1452 1452 1453 1453 1453 1453 1452 1452 1452 1452 1452 1451 1451 1451 1451 1450 1450 1450 1450 1450 1450 1450 1450 1450
1445 1445 1446 1446 1446 1446 1447 1447 1447 1447 1448 1448 1448 1449 1449 1449 1449 1449 1450 1450 1450 1450 1450 1450 1451 1451 1451 1451 1451 1451 1451 1451 1451 1451 1451 1451 1451 1452 1451 1451 1451 1450 1450 1450 1450 1451 1451 1452 1452 1451 1451 1451 1451 1450 1450 1450 1449 1449 1449 1449 1449 1449 1448 1448 1448 1448 1448 1448 1448
1444 1445 1445 1445 1445 1445 1446 1446 1446 1446 1447 1447 1447 1447 1447 1448 1448 1448 1448 1448 1448 1449 1449 1449 1449 1449 1449 1449 1449 1449 1449 1449 1449 1449 1449 1449 1450 1450 1449 1449 1449 1449 1448 1449 1449 1449 1450 1450 1450 1450 1449 1449 1449 1448 1448 1448 1448 1447 1447 1447 1447 1447 1447 1447 1447 1447 1447 1447 1447
1444 1444 1444 1444 1444 1445 1445 1445 1445 1445 1446 1446 1446 1446 1446 1446 1447 1447 1447 1447 1447 1447 1447 1447 1447 1447 1447 1447 1447 1447 1447 1447 1447 1447 1448 1448 1448 1448 1448 1447 1447 1447 1447 1447 1448 1448 1448 1448 1448 1448 1448 1447 1447 1447 1447 1446 1446 1446 1446 1446 1446 1446 1445 1445 1445 1445 1445 1445 1445
1443 1444 1444 1444 1444 1444 1444 1444 1444 1444 1445 1445 1445 1445 1445 1445 1445 1445 1445 1445 1446 1446 1446 1446 1446 1446 1446 1446 1446 1446 1446 1446 1446 1446 1446 1446 1446 1446 1446 1446 1446 1446 1446 1446 1446 1446 1446 1446 1446 1446 1446 1446 1445 1445 1445 1445 1445 1444 1444 1444 1444 1444 1444 1444 1444 1444 1444 1443 1443
1443 1443 1443 1443 1443 1443 1443 1444 1444 1444 1444 1444 1444 1444 1444 1444 1444 1444 1444 1444 1444 1444 1444 1444 1445 1445 1445 1445 1445 1445 1445 1445 1445 1445 1445 1445 1445 1445 1445 1445 1445 1445 1444 1444 1444 1444 1444 1444 1444 1444 1444 1444 1444 1443 1443 1443 1443 1443 1443 1443 1443 1443 1443 1443 1443 1442 1442 1442 1442
1442 1442 1442 1442 1443 1443 1443 1443 1443 1443 1443 1443 1443 1443 1443 1443 1443 1443 1443 1443 1443 1443 1443 1443 1443 1443 1443 1443 1443 1443 1443 1443 1443 1443 1443 1443 1443 1443 1443 1443 1443 1443 1443 1443 1443 1443 1443 1443 1443 1443 1442 1442 1442 1442 1442 1442 1442 1442 1442 1442 1442 1442 1442 1442 1442 1441 1441 1441 1440
1442 1442 1442 1442 1442 1442 1442 1442 1442 1442 1442 1442 1442 1442 1442 1442 1442 1442 1442 1442 1442 1442 1442 1442 1442 1442 1442 1442 1442 1442 1442 1442 1442 1442 1442 1442 1442 1442 1442 1442 1441 1441 1441 1441 1441 1441 1441 1441 1441 1441 1441 1441 1441 1441 1441 1441 1441 1441 1441 1441 1441 1441 1440 1440 1440 1439 1439 1438 1438
1441 1441 1441 1441 1441 1441 1441 1441 1441 1441 1441 1441 1441 1441 1441 1441 1441 1441 1441 1441 1441 1441 1441 1441 1441 1441 1441 1441 1441 1441 1441 1441 1441 1441 1440 1440 1440 1440 1440 1440 1440 1440 1440 1440 1440 1440 1440 1440 1440 1440 1440 1440 1440 1440 1440 1440 1440 1439 1439 1439 1439 1438 1438 1438 1437 1437 1437 1437 1436
1441 1441 1441 1441 1441 1441 1441 1441 1441 1441 1441 1441 1441 1441 1441 1440 1440 1440 1441 1441 1441 1441 1441 1441 1441 1440 1440 1440 1440 1440 1440 1440 1440 1439 1439 1439 1439 1439 1439 1439 1439 1439 1438 1438 1438 1438 1438 1439 1439 1439 1439 1439 1439 1439 1438 1438 1438 1437 1437 1437 1437 1437 1436 1436 1436 1435 1435 1435 1435
1441 1441 1441 1441 1441 1440 1440 1440 1440 1440 1440 1440 1440 1440 1440 1440 1440 1440 1440 1440 1440 1440 1440 1440 1440 1440 1440 1439 1439 1439 1439 1439 1439 1439 1438 1438 1438 1438 1438 1438 1438 1438 1437 1437 1437 1437 1437 1437 1437 1437 1437 1437 1437 1437 1437 1437 1436 1436 1436 1436 1435 1435 1435 1435 1434 1434 1434 1434 1433
1441 1441 1441 1440 1440 1440 1440 1440 1440 1440 1440 1440 1440 1440 1439 1439 1439 1439 1439 1439 1439 1439 1439 1439 1439 1439 1439 1439 1438 1438 1438 1438 1438 1438 1438 1437 1437 1437 1437 1437 1437 1437 1437 1436 1436 1436 1436 1436 1436 1436 1436 1436 1436 1436 1436 1435 1435 1435 1435 1434 1434 1434 1433 1433 1433 1433 1433 1432 1432
1441 1440 1440 1440 1440 1440 1440 1440 1440 1440 1440 1440 1440 1439 1439 1439 1439 1439 1439 1439 1439 1439 1439 1438 1438 1438 1438 1438 1438 1438 1437 1437 1437 1437 1437 1437 1437 1436 1436 1436 1436 1435 1435 1435 1435 1435 1435 1435 1435 1435 1435 1435 1434 1434 1434 1434 1434 1433 1433 1433 1432 1432 1432 1432 1432 1432 1431 1431 1431
1441 1440 1440 1440 1440 1440 1440 1440 1440 1440 1440 1440 1440 1440 1439 1439 1439 1439 1439 1439 1438 1438 1438 1438 1438 1437 1437 1437 1437 1437 1437 1437 1436 1436 1436 1436 1436 1435 1435 1435 1435 1434 1434 1434 1434 1434 1434 1434 1434 1434 1434 1434 1434 1433 1433 1433 1433 1432 1432 1432 1432 1431 1431 1431 1431 1430 1430 1429 1429
1441 1440 1440 1440 1440 1440 1440 1440 1440 1440 1440 1440 1440 1440 1439 1439 1439 1439 1438 1438 1438 1437 1437 1437 1437 1437 1437 1437 1436 1436 1436 1436 1436 1435 1435 1435 1435 1435 1434 1434 1434 1433 1433 1433 1433 1433 1433 1434 1434 1434 1434 1434 1433 1433 1433 1432 1432 1432 1432 1432 1431 1431 1431 1431 1430 1429 1429 1428 1428
1441 1440 1440 1440 1440 1440 1440 1440 1440 1440 1440 1440 1440 1439 1439 1439 1439 1439 1438 1438 1438 1437 1437 1437 1437 1437 1436 1436 1436 1436 1435 1435 1435 1435 1434 1434 1434 1434 1434 1434 1434 1434 1434 1434 1434 1434 1434 1434 1434 1434 1434 1433 1433 1433 1432 1432 1432 1432 1431 1431 1431 1430 1430 1429 1429 1428 1428 1427 1427
1441 1440 1440 1440 1440 1440 1440 1440 1440 1440 1440 1440 1439 1439 1439 1439 1439 1438 1438 1438 1438 1437 1437 1437 1437 1437 1436 1436 1436 1436 1435 1435 1435 1435 1435 1435 1435 1435 1435 1435 1435 1435 1435 1434 1434 1434 1434 1434 1433 1433 1433 1433 1433 1432 1432 1432 1431 1431 1430 1429 1429 1428 1428 1427 1427 1427 1426 1425 1424
1441 1441 1440 1440 1440 1440 1440 1440 1440 1439 1439 1439 1439 1439 1438 1438 1438 1438 1438 1437 1437 1437 1437 1437 1437 1437 1437 1436 1436 1436 1436 1435 1436 1436 1436 1436 1436 1435 1435 1435 1435 1435 1434 1434 1434 1434 1433 1433 1433 1433 1432 1432 1432 1431 1431 1431 1430 1429 1429 1428 1427 1427 1426 1426 1425 1425 1424 1423 1423